Home > Weather > Palikir > Past weeks

Flag for Micronesia Past Weather in Palikir, Pohnpei, Micronesia — Yesterday and Last 2 Weeks

Now
80 °F

Mostly cloudy.


Feels Like: 88 °F
Forecast: 78 / 88 °F
Wind: 3 mph from Southeast

Location: Pohnpei

Current Time: Jun 30, 2016 at 8:51:42 AM

Latest Report: Jun 30, 2016 at 7:50 AM


Visibility: 15 mi

Pressure: 29.86 "Hg

Humidity: 96%

Dew Point: 79 °F

Location of PalikirLocation

Past Weather in Palikir — Graph

°F

Palikir Temperature Yesterday

Maximum temperature yesterday: 87 °F (at 8:56 AM)
Minimum temperature yesterday: 76 °F (at 1:50 AM)
Average temperature yesterday: 80 °F

High & Low Weather Summary for the Past Weeks

 TemperatureHumidityPressure
High90 °F (Jun 23, 1:50 PM)99% (Jun 27, 11:53 PM)29.95 "Hg (Jun 27, 11:53 PM)
Low76 °F (Jun 29, 1:50 AM)66% (Jun 16, 1:55 PM)29.74 "Hg (Jun 23, 3:50 PM)
Average82 °F85%29.83 "Hg
* Reported Jun 15 2:58 AM — Jun 30 2:50 AM, Palikir, Weather by CustomWeather, © 2016

Note: Actual official high and low records may vary slightly from our data, if they occured in-between our weather recording intervals... More about our weather records

Advertising

Palikir Weather History for the Previous 24 Hours

Scroll right to see more
 ConditionsComfort  
Time TempWeatherWind HumidityBarometerVisibility
2:50 AM
Thu, Jun 30
76 °FSprinkles. Mostly cloudy.3 mph99%29.83 "Hg14 mi
1:50 AM78 °FSprinkles. Mostly cloudy.3 mph95%29.84 "Hg14 mi
12:50 AM78 °FSprinkles. Mostly cloudy.3 mph97%29.85 "Hg14 mi
11:52 PM
Wed, Jun 29
78 °FMostly cloudy.3 mph95%29.87 "Hg13 mi
10:53 PM78 °FMostly cloudy.3 mph90%29.88 "Hg15 mi
9:55 PM78 °FMostly cloudy.3 mph95%29.87 "Hg15 mi
8:52 PM78 °FMostly cloudy.3 mph95%29.86 "Hg15 mi
7:54 PM79 °FMostly cloudy.3 mph91%29.84 "Hg15 mi
6:52 PM79 °FSprinkles. Mostly cloudy.3 mph94%29.83 "Hg15 mi
5:53 PM79 °FSprinkles. Mostly cloudy.3 mph96%29.82 "Hg13 mi
4:56 PM78 °FSprinkles. Mostly cloudy.2 mph96%29.81 "Hg12 mi
3:56 PM79 °FSprinkles. Mostly cloudy.5 mph96%29.80 "Hg12 mi
2:54 PM86 °FMostly cloudy.3 mph77%29.80 "Hg15 mi
1:55 PM86 °FMostly cloudy.3 mph77%29.82 "Hg15 mi
12:57 PM80 °FMostly cloudy.3 mph90%29.84 "Hg15 mi
11:55 AM79 °FSprinkles. Mostly cloudy.3 mph91%29.86 "Hg13 mi
10:56 AM85 °FOvercast.3 mph81%29.87 "Hg15 mi
9:56 AM85 °FBroken clouds.5 mph77%29.88 "Hg15 mi
8:56 AM87 °FPartly sunny.3 mph75%29.88 "Hg15 mi
Weather by CustomWeather, © 2016

See weather overviewHow to use our weather pages